Notices

What's New in latest Release from April 7th, 2021:

- Updated Glossary, including Speed of Maximum Gust, and Total Hourly Precipitation

- Updated national and regional climate services offices contacts and prices information

- Addition of station inventory lists for 1981-2010, 1971-2000, and 1961-1990 Normals.

If you haven't already, please take our survey and provide feedback about our website: https://eccc.sondage-survey.ca/f/LanguageSelection.aspx?s=442ca660-fcf1-47c0-95a9-59707d6fd709

Hourly Data Report for February 04, 2003

TORONTO CITY
ONTARIO

43°40'00.000" N
79°24'00.000" W
112.50 m
6158355
71508
XTO

Download Data

Hourly Data (February 2003)
Hourly Data Report for February 4, 2003
TIME
LST
Temp Definition
°C
Dew Point Definition
°C
Rel Hum Definition
%
Precip. Amount Definition
mm

Wind Dir Definition
10's deg

Wind Spd Definition
km/h
Visibility Definition
km
Stn Press Definition
kPa
Hmdx Definition


Wind Chill Definition


Weather Definition


00:00 2.0 1.7 98     0 LegendMM 98.02     LegendNANA
01:00
02:00 2.9 2.8 99     0 LegendMM 97.59     LegendNANA
03:00 3.1 3.0 99     0 LegendMM 97.42     LegendNANA
04:00 3.7 3.7 100     0 LegendMM 97.27     LegendNANA
05:00 4.6 4.6 100     0 LegendMM 97.12     LegendNANA
06:00 5.7 5.7 100     0 LegendMM 97.03     LegendNANA
07:00 4.7 4.1 96     0 LegendMM 97.10     LegendNANA
08:00 3.6 1.8 88     0 LegendMM 97.22     LegendNANA
09:00 3.4 -0.9 73     0 LegendMM 97.34     LegendNANA
10:00 2.8 -1.8 72     0 LegendMM 97.40     LegendNANA
11:00 2.0 -3.6 66     0 LegendMM 97.54     LegendNANA
12:00 0.4 -4.5 70     0 LegendMM 97.65     LegendNANA
13:00 0.4 -4.9 68     0 LegendMM 97.71     LegendNANA
14:00 0.0 -7.6 57     0 LegendMM 97.82     LegendNANA
15:00 -0.8 -7.0 63     0 LegendMM 97.94     LegendNANA
16:00 -1.1 -6.7 66     0 LegendMM 98.05     LegendNANA
17:00
18:00 -3.3 -5.1 87     0 LegendMM 98.35     LegendNANA
19:00 -3.3 -6.0 82     0 LegendMM 98.52     LegendNANA
20:00 -3.5 -6.9 77     0 LegendMM 98.66     LegendNANA
21:00 -3.9 -9.4 66     0 LegendMM 98.80     LegendNANA
22:00 -4.5 -9.6 67     0 LegendMM 98.91     LegendNANA
23:00                      

Notes on Data Quality.

Legend

  • E = Estimated
  • M = Missing
  • NA = Not Available*
  • [empty] = Indicates an unobserved value
Date modified: